UAL1328 KMSP-KDTW

Flight info

Callsign UAL1328
Flight time 1h 10m
Altitude 39000
Route COULT7 DLL DCT PORZL RKCTY2
Aircraft B77L/H-SDE1E2E3FGHIJ2J3J4J5M1RWXY/LB1D1

Departure

Time 2026-05-05 03:34
Airport Minneapolis–Saint Paul International Airport / Wold–Chamberlain Field (KMSP)

Arrival

Time 2026-05-05 04:44
Airport Detroit Metropolitan Wayne County Airport (KDTW)
Time Latitude Longitude Altitude Speed Heading
2026-05-05 03:10 44.88077 -93.21053 834 ft 0 kts 25°
2026-05-05 03:25 44.88073 -93.21056 829 ft 3 kts 34°
2026-05-05 03:25 44.88060 -93.21076 830 ft 3 kts 72°
2026-05-05 03:25 44.88054 -93.21102 832 ft 3 kts 72°
2026-05-05 03:26 44.88048 -93.21128 828 ft 3 kts 72°
2026-05-05 03:26 44.88043 -93.21153 828 ft 3 kts 72°
2026-05-05 03:26 44.88037 -93.21177 828 ft 3 kts 72°
2026-05-05 03:26 44.88032 -93.21202 827 ft 3 kts 72°
2026-05-05 03:27 44.88029 -93.21213 827 ft 0 kts 72°
2026-05-05 03:29 44.88014 -93.21181 827 ft 11 kts 142°
2026-05-05 03:29 44.87934 -93.21130 830 ft 13 kts 148°
2026-05-05 03:29 44.87876 -93.21032 828 ft 13 kts 121°
2026-05-05 03:29 44.87829 -93.20922 831 ft 14 kts 121°
2026-05-05 03:30 44.87775 -93.20796 827 ft 16 kts 121°
2026-05-05 03:30 44.87716 -93.20656 829 ft 17 kts 121°
2026-05-05 03:30 44.87649 -93.20503 829 ft 20 kts 122°
2026-05-05 03:30 44.87576 -93.20337 823 ft 19 kts 121°
2026-05-05 03:31 44.87511 -93.20188 824 ft 16 kts 122°
2026-05-05 03:31 44.87454 -93.20093 825 ft 12 kts 158°
2026-05-05 03:31 44.87383 -93.20144 830 ft 13 kts 246°
2026-05-05 03:31 44.87396 -93.20223 828 ft 0 kts 299°
2026-05-05 03:32 44.87398 -93.20226 828 ft 4 kts 301°
2026-05-05 03:32 44.87399 -93.20229 829 ft 0 kts 301°
2026-05-05 03:33 44.87414 -93.20265 830 ft 29 kts 301°
2026-05-05 03:33 44.87682 -93.20886 827 ft 116 kts 302°
2026-05-05 03:33 44.88230 -93.22121 1023 ft 161 kts 301°
2026-05-05 03:34 44.88841 -93.23340 2099 ft 148 kts 318°
2026-05-05 03:34 44.89806 -93.23846 2969 ft 155 kts 356°
2026-05-05 03:34 44.90963 -93.23700 3484 ft 182 kts 360°
2026-05-05 03:34 44.92298 -93.23228 3744 ft 223 kts 26°
2026-05-05 03:35 44.93331 -93.21407 4297 ft 260 kts 66°
2026-05-05 03:35 44.93407 -93.18771 5139 ft 282 kts 103°
2026-05-05 03:35 44.92585 -93.16194 5972 ft 293 kts 119°
2026-05-05 03:35 44.91565 -93.13687 6917 ft 301 kts 120°
2026-05-05 03:36 44.90500 -93.11099 7973 ft 307 kts 120°
2026-05-05 03:36 44.89424 -93.08453 9036 ft 312 kts 120°
2026-05-05 03:36 44.88346 -93.05753 10018 ft 318 kts 120°
2026-05-05 03:36 44.87263 -93.03001 10779 ft 334 kts 120°
2026-05-05 03:37 44.86091 -92.99992 11111 ft 367 kts 120°
2026-05-05 03:37 44.84825 -92.96708 11757 ft 387 kts 120°
2026-05-05 03:37 44.83499 -92.93347 12852 ft 396 kts 124°
2026-05-05 03:37 44.82033 -92.90071 13968 ft 402 kts 126°
2026-05-05 03:38 44.80510 -92.86684 14892 ft 414 kts 126°
2026-05-05 03:38 44.79015 -92.83176 15725 ft 428 kts 124°
2026-05-05 03:38 44.77525 -92.79462 16578 ft 440 kts 124°
2026-05-05 03:38 44.76046 -92.75607 17485 ft 451 kts 123°
2026-05-05 03:39 44.74559 -92.71625 18319 ft 463 kts 123°
2026-05-05 03:39 44.73062 -92.67566 19126 ft 471 kts 123°
2026-05-05 03:39 44.71567 -92.63496 20030 ft 476 kts 123°
2026-05-05 03:39 44.70026 -92.59313 20906 ft 483 kts 124°
2026-05-05 03:40 44.68458 -92.55077 21720 ft 491 kts 124°
2026-05-05 03:40 44.66879 -92.50831 22487 ft 499 kts 124°
2026-05-05 03:40 44.65248 -92.46455 23298 ft 507 kts 124°
2026-05-05 03:40 44.63621 -92.42095 23991 ft 513 kts 124°
2026-05-05 03:41 44.61945 -92.37604 24734 ft 518 kts 124°
2026-05-05 03:41 44.60281 -92.33154 25527 ft 521 kts 124°
2026-05-05 03:41 44.58587 -92.28631 26257 ft 524 kts 124°
2026-05-05 03:41 44.56879 -92.24082 27093 ft 525 kts 124°
2026-05-05 03:42 44.55092 -92.19655 27788 ft 526 kts 129°
2026-05-05 03:42 44.53000 -92.15423 28396 ft 527 kts 134°
2026-05-05 03:42 44.50793 -92.11264 29034 ft 532 kts 135°
2026-05-05 03:42 44.48594 -92.07135 29684 ft 536 kts 135°
2026-05-05 03:43 44.46367 -92.02913 30252 ft 541 kts 134°
2026-05-05 03:43 44.44133 -91.98632 30745 ft 546 kts 134°
2026-05-05 03:43 44.41879 -91.94285 31202 ft 551 kts 134°
2026-05-05 03:43 44.39637 -91.89957 31621 ft 554 kts 133°
2026-05-05 03:44 44.37397 -91.85568 32364 ft 552 kts 131°
2026-05-05 03:44 44.35402 -91.81031 33052 ft 557 kts 125°
2026-05-05 03:44 44.33569 -91.76205 33610 ft 559 kts 123°
2026-05-05 03:44 44.31772 -91.71371 34124 ft 559 kts 123°
2026-05-05 03:45 44.30000 -91.66591 34706 ft 556 kts 123°
2026-05-05 03:45 44.28214 -91.61812 35477 ft 549 kts 123°
2026-05-05 03:45 44.26440 -91.57107 36182 ft 544 kts 122°
2026-05-05 03:45 44.24695 -91.52517 36730 ft 541 kts 122°
2026-05-05 03:46 44.22918 -91.47872 37397 ft 537 kts 122°
2026-05-05 03:46 44.21154 -91.43282 37936 ft 535 kts 122°
2026-05-05 03:46 44.19415 -91.38772 38445 ft 533 kts 121°
2026-05-05 03:46 44.17646 -91.34190 38741 ft 534 kts 121°
2026-05-05 03:47 44.14111 -91.25054 38726 ft 539 kts 121°
2026-05-05 03:47 44.10557 -91.15873 38714 ft 533 kts 121°
2026-05-05 03:48 44.07051 -91.06845 38714 ft 528 kts 122°
2026-05-05 03:48 44.03566 -90.97902 38711 ft 526 kts 122°
2026-05-05 03:49 44.00083 -90.88998 38695 ft 526 kts 122°
2026-05-05 03:49 43.96587 -90.80088 38705 ft 527 kts 122°
2026-05-05 03:50 43.93055 -90.71115 38701 ft 528 kts 122°
2026-05-05 03:50 43.89530 -90.62186 38705 ft 530 kts 122°
2026-05-05 03:51 43.85991 -90.53248 38690 ft 531 kts 122°
2026-05-05 03:51 43.82417 -90.44252 38635 ft 531 kts 122°
2026-05-05 03:52 43.78857 -90.35318 38663 ft 530 kts 122°
2026-05-05 03:52 43.75299 -90.26417 38662 ft 529 kts 122°
2026-05-05 03:53 43.71725 -90.17504 38640 ft 528 kts 122°
2026-05-05 03:53 43.68176 -90.08680 38656 ft 527 kts 122°
2026-05-05 03:54 43.64601 -89.99820 38656 ft 526 kts 122°
2026-05-05 03:54 43.61047 -89.91035 38636 ft 524 kts 122°
2026-05-05 03:55 43.57507 -89.82205 38694 ft 524 kts 119°
2026-05-05 03:55 43.54944 -89.72776 38708 ft 527 kts 107°
2026-05-05 03:56 43.53611 -89.62868 38706 ft 529 kts 98°
2026-05-05 03:56 43.52681 -89.52847 38681 ft 529 kts 98°
2026-05-05 03:57 43.51724 -89.42759 38669 ft 530 kts 98°
2026-05-05 03:57 43.50720 -89.32734 38648 ft 530 kts 99°
2026-05-05 03:58 43.49686 -89.22696 38637 ft 530 kts 99°
2026-05-05 03:58 43.48638 -89.12611 38633 ft 530 kts 99°
2026-05-05 03:59 43.47590 -89.02585 38640 ft 529 kts 99°
2026-05-05 03:59 43.46537 -88.92583 38648 ft 528 kts 99°
2026-05-05 04:00 43.45472 -88.82555 38644 ft 528 kts 99°
2026-05-05 04:00 43.44405 -88.72597 38653 ft 527 kts 99°
2026-05-05 04:01 43.43329 -88.62645 38656 ft 527 kts 99°
2026-05-05 04:01 43.42241 -88.52657 38653 ft 527 kts 99°
2026-05-05 04:02 43.41150 -88.42723 38626 ft 526 kts 99°
2026-05-05 04:02 43.40051 -88.32807 38650 ft 526 kts 99°
2026-05-05 04:03 43.38939 -88.22842 38663 ft 526 kts 99°
2026-05-05 04:03 43.37824 -88.12936 38672 ft 526 kts 100°
2026-05-05 04:04 43.36697 -88.03009 38627 ft 526 kts 100°
2026-05-05 04:04 43.35555 -87.93025 38614 ft 526 kts 100°
2026-05-05 04:05 43.34412 -87.83115 38607 ft 526 kts 100°
2026-05-05 04:05 43.33260 -87.73199 38611 ft 527 kts 100°
2026-05-05 04:06 43.32093 -87.63233 38606 ft 527 kts 101°
2026-05-05 04:06 43.30927 -87.53357 38627 ft 526 kts 101°
2026-05-05 04:07 43.29744 -87.43404 38616 ft 526 kts 101°
2026-05-05 04:07 43.28557 -87.33495 38622 ft 526 kts 101°
2026-05-05 04:08 43.27366 -87.23630 38642 ft 526 kts 101°
2026-05-05 04:08 43.26166 -87.13723 38640 ft 525 kts 100°
2026-05-05 04:09 43.25995 -87.03754 38661 ft 525 kts 86°
2026-05-05 04:09 43.26578 -86.93791 38620 ft 525 kts 85°
2026-05-05 04:10 43.27035 -86.85451 38660 ft 524 kts 86°
2026-05-05 04:10 43.27452 -86.75415 38628 ft 525 kts 88°
2026-05-05 04:11 43.27804 -86.65441 38622 ft 525 kts 88°
2026-05-05 04:11 43.28148 -86.55480 38600 ft 524 kts 88°
2026-05-05 04:12 43.28494 -86.45480 38597 ft 524 kts 88°
2026-05-05 04:12 43.28835 -86.35469 38601 ft 523 kts 88°
2026-05-05 04:13 43.29165 -86.25519 38585 ft 523 kts 88°
2026-05-05 04:13 43.29486 -86.15568 38495 ft 519 kts 88°
2026-05-05 04:14 43.29643 -86.10641 38156 ft 512 kts 88°
2026-05-05 04:14 43.29796 -86.05736 37441 ft 512 kts 89°
2026-05-05 04:14 43.29908 -86.00891 36742 ft 512 kts 90°
2026-05-05 04:14 43.29954 -85.96041 36153 ft 509 kts 91°
2026-05-05 04:15 43.29969 -85.91186 35669 ft 505 kts 91°
2026-05-05 04:15 43.29977 -85.86382 35225 ft 500 kts 91°
2026-05-05 04:15 43.29989 -85.81619 34771 ft 496 kts 91°
2026-05-05 04:15 43.30007 -85.76897 34302 ft 492 kts 91°
2026-05-05 04:16 43.30028 -85.72263 33829 ft 489 kts 91°
2026-05-05 04:16 43.30051 -85.67586 33324 ft 487 kts 91°
2026-05-05 04:16 43.30074 -85.62953 32805 ft 483 kts 91°
2026-05-05 04:16 43.30094 -85.58391 32318 ft 480 kts 91°
2026-05-05 04:17 43.30113 -85.53807 31825 ft 477 kts 91°
2026-05-05 04:17 43.30129 -85.49231 31348 ft 474 kts 91°
2026-05-05 04:17 43.30142 -85.44748 30885 ft 471 kts 92°
2026-05-05 04:17 43.30154 -85.40255 30460 ft 467 kts 92°
2026-05-05 04:18 43.30164 -85.35874 30166 ft 460 kts 92°
2026-05-05 04:18 43.30173 -85.31491 29770 ft 456 kts 92°
2026-05-05 04:18 43.30179 -85.27143 29226 ft 455 kts 92°
2026-05-05 04:18 43.30056 -85.22816 28595 ft 448 kts 103°
2026-05-05 04:19 43.29160 -85.18830 27955 ft 437 kts 123°
2026-05-05 04:19 43.27571 -85.15341 27442 ft 426 kts 130°
2026-05-05 04:19 43.25925 -85.11957 26926 ft 425 kts 130°
2026-05-05 04:19 43.24301 -85.08576 26198 ft 431 kts 130°
2026-05-05 04:20 43.22648 -85.05093 25485 ft 435 kts 129°
2026-05-05 04:20 43.20998 -85.01587 24819 ft 438 kts 129°
2026-05-05 04:20 43.19348 -84.98062 24175 ft 440 kts 129°
2026-05-05 04:20 43.17708 -84.94554 23590 ft 441 kts 129°
2026-05-05 04:21 43.16049 -84.91010 23084 ft 439 kts 129°
2026-05-05 04:21 43.14416 -84.87531 22585 ft 435 kts 129°
2026-05-05 04:21 43.12755 -84.84043 22132 ft 429 kts 130°
2026-05-05 04:21 43.11102 -84.80718 21675 ft 424 kts 131°
2026-05-05 04:22 43.09421 -84.77402 21229 ft 420 kts 131°
2026-05-05 04:22 43.07760 -84.74135 20787 ft 416 kts 130°
2026-05-05 04:22 43.06126 -84.70914 20344 ft 413 kts 130°
2026-05-05 04:22 43.04489 -84.67677 19894 ft 410 kts 130°
2026-05-05 04:23 43.02869 -84.64469 19488 ft 407 kts 130°
2026-05-05 04:23 43.01270 -84.61303 19087 ft 403 kts 130°
2026-05-05 04:23 42.99697 -84.58187 18675 ft 400 kts 130°
2026-05-05 04:23 42.98120 -84.55067 18276 ft 397 kts 130°
2026-05-05 04:24 42.96551 -84.51966 17901 ft 395 kts 130°
2026-05-05 04:24 42.94989 -84.48885 17458 ft 392 kts 130°
2026-05-05 04:24 42.93467 -84.45859 17019 ft 390 kts 130°
2026-05-05 04:25 42.90447 -84.39740 16146 ft 385 kts 129°
2026-05-05 04:25 42.88971 -84.36747 15732 ft 383 kts 129°
2026-05-05 04:25 42.87483 -84.33735 15297 ft 380 kts 129°
2026-05-05 04:25 42.86006 -84.30753 14932 ft 378 kts 129°
2026-05-05 04:26 42.84528 -84.27773 14561 ft 375 kts 128°
2026-05-05 04:26 42.83088 -84.24872 14217 ft 372 kts 128°
2026-05-05 04:26 42.81634 -84.21949 13847 ft 369 kts 128°
2026-05-05 04:26 42.80209 -84.19086 13474 ft 368 kts 128°
2026-05-05 04:27 42.78773 -84.16203 13046 ft 366 kts 128°
2026-05-05 04:27 42.77342 -84.13334 12651 ft 364 kts 128°
2026-05-05 04:27 42.75917 -84.10478 12251 ft 362 kts 128°
2026-05-05 04:27 42.74521 -84.07679 11882 ft 360 kts 128°
2026-05-05 04:28 42.73112 -84.04853 11510 ft 358 kts 128°
2026-05-05 04:28 42.71720 -84.02064 11135 ft 356 kts 128°
2026-05-05 04:28 42.70347 -83.99317 10976 ft 357 kts 128°
2026-05-05 04:28 42.68962 -83.96499 10980 ft 357 kts 124°
2026-05-05 04:29 42.68023 -83.93361 10932 ft 359 kts 107°
2026-05-05 04:29 42.67464 -83.90131 10504 ft 344 kts 105°
2026-05-05 04:29 42.66941 -83.87056 9930 ft 332 kts 105°
2026-05-05 04:29 42.66399 -83.83977 9357 ft 335 kts 106°
2026-05-05 04:30 42.65841 -83.80903 8979 ft 330 kts 106°
2026-05-05 04:30 42.65285 -83.77902 8607 ft 325 kts 107°
2026-05-05 04:30 42.64749 -83.75043 8362 ft 305 kts 107°
2026-05-05 04:30 42.64235 -83.72313 8012 ft 289 kts 107°
2026-05-05 04:31 42.63735 -83.69680 7988 ft 288 kts 107°
2026-05-05 04:31 42.63235 -83.67060 7972 ft 289 kts 107°
2026-05-05 04:31 42.62729 -83.64408 7982 ft 289 kts 107°
2026-05-05 04:31 42.62200 -83.61761 7910 ft 287 kts 109°
2026-05-05 04:32 42.61653 -83.59194 7679 ft 283 kts 109°
2026-05-05 04:32 42.61109 -83.56661 7475 ft 274 kts 109°
2026-05-05 04:32 42.60584 -83.54215 7270 ft 266 kts 110°
2026-05-05 04:32 42.60072 -83.51832 7009 ft 259 kts 110°
2026-05-05 04:33 42.59574 -83.49513 6695 ft 257 kts 110°
2026-05-05 04:33 42.59073 -83.47181 6332 ft 256 kts 110°
2026-05-05 04:33 42.58573 -83.44855 6014 ft 254 kts 111°
2026-05-05 04:33 42.57818 -83.42709 6014 ft 257 kts 127°
2026-05-05 04:34 42.56807 -83.40677 5904 ft 258 kts 130°
2026-05-05 04:34 42.55795 -83.38717 5731 ft 253 kts 130°
2026-05-05 04:34 42.54805 -83.36782 5623 ft 244 kts 130°
2026-05-05 04:34 42.53846 -83.34888 5466 ft 244 kts 131°
2026-05-05 04:35 42.52890 -83.32998 5283 ft 245 kts 130°
2026-05-05 04:35 42.51921 -83.31088 5121 ft 245 kts 130°
2026-05-05 04:35 42.50969 -83.29201 5054 ft 243 kts 130°
2026-05-05 04:35 42.50017 -83.27304 4996 ft 244 kts 130°
2026-05-05 04:36 42.49060 -83.25395 4988 ft 245 kts 130°
2026-05-05 04:36 42.48102 -83.23476 4988 ft 245 kts 130°
2026-05-05 04:36 42.47155 -83.21581 4988 ft 246 kts 130°
2026-05-05 04:36 42.46194 -83.19659 4986 ft 247 kts 130°
2026-05-05 04:37 42.45062 -83.18001 4969 ft 231 kts 156°
2026-05-05 04:37 42.43624 -83.17469 4978 ft 208 kts 191°
2026-05-05 04:37 42.42970 -83.17652 4965 ft 192 kts 208°
2026-05-05 04:37 42.42914 -83.17682 4964 ft 191 kts 210°
2026-05-05 04:38 42.41869 -83.18555 4976 ft 174 kts 218°
2026-05-05 04:38 42.40818 -83.19401 4755 ft 173 kts 216°
2026-05-05 04:38 42.39787 -83.20187 4538 ft 168 kts 215°
2026-05-05 04:38 42.38774 -83.20947 4306 ft 164 kts 215°
2026-05-05 04:39 42.37788 -83.21684 4101 ft 161 kts 215°
2026-05-05 04:39 42.36808 -83.22414 3894 ft 160 kts 216°
2026-05-05 04:39 42.35839 -83.23134 3683 ft 157 kts 216°
2026-05-05 04:39 42.34897 -83.23832 3526 ft 156 kts 217°
2026-05-05 04:40 42.33949 -83.24537 3321 ft 155 kts 217°
2026-05-05 04:40 42.33009 -83.25234 3122 ft 151 kts 217°
2026-05-05 04:40 42.32123 -83.25888 2931 ft 136 kts 217°
2026-05-05 04:40 42.31368 -83.26446 2767 ft 116 kts 218°
2026-05-05 04:41 42.30685 -83.26954 2615 ft 109 kts 218°
2026-05-05 04:41 42.29999 -83.27466 2474 ft 115 kts 217°
2026-05-05 04:41 42.29298 -83.27988 2349 ft 117 kts 216°
2026-05-05 04:41 42.28579 -83.28520 2177 ft 117 kts 215°
2026-05-05 04:42 42.27867 -83.29046 2038 ft 118 kts 213°
2026-05-05 04:42 42.27152 -83.29576 1873 ft 115 kts 213°
2026-05-05 04:42 42.26441 -83.30103 1725 ft 118 kts 213°
2026-05-05 04:42 42.25700 -83.30660 1545 ft 126 kts 213°
2026-05-05 04:43 42.24939 -83.31241 1393 ft 125 kts 211°
2026-05-05 04:43 42.24194 -83.31765 1205 ft 118 kts 212°
2026-05-05 04:43 42.23465 -83.32303 1055 ft 124 kts 215°
2026-05-05 04:43 42.22703 -83.32842 903 ft 120 kts 213°
2026-05-05 04:44 42.21947 -83.33418 722 ft 129 kts 213°
2026-05-05 04:44 42.21203 -83.33989 659 ft 107 kts 211°
2026-05-05 04:44 42.20738 -83.34331 655 ft 36 kts 208°
2026-05-05 04:44 42.20560 -83.34581 659 ft 29 kts 239°
2026-05-05 04:45 42.20531 -83.34645 658 ft 0 kts 239°
2026-05-05 04:45 42.20512 -83.34689 660 ft 16 kts 237°
2026-05-05 04:45 42.20431 -83.34791 660 ft 16 kts 211°
2026-05-05 04:45 42.20333 -83.34866 659 ft 16 kts 210°
2026-05-05 04:46 42.20236 -83.34937 656 ft 16 kts 208°
2026-05-05 04:46 42.20181 -83.35060 656 ft 16 kts 264°
2026-05-05 04:46 42.20176 -83.35211 654 ft 16 kts 268°
2026-05-05 04:46 42.20172 -83.35360 657 ft 16 kts 268°
2026-05-05 04:47 42.20171 -83.35511 657 ft 16 kts 269°
2026-05-05 04:47 42.20169 -83.35662 658 ft 16 kts 268°
2026-05-05 04:47 42.20165 -83.35812 658 ft 15 kts 268°
2026-05-05 04:47 42.20163 -83.35949 654 ft 14 kts 273°
2026-05-05 04:48 42.20206 -83.36011 658 ft 9 kts 354°
2026-05-05 04:48 42.20259 -83.36025 657 ft 12 kts 337°
2026-05-05 04:48 42.20313 -83.36112 659 ft 3 kts 302°